Home   Weather   Leonding   Past weeks

Flag for Austria Past Weather in Leonding, Upper Austria, Austria — Yesterday and Last 2 Weeks

Now
28 °F

Light fog.


Feels Like: 25 °F
Forecast: 29 / 44 °F
Wind: 3 mph from West

Location: Linz / Hoersching-Flughafen

Current Time: Dec 9, 2016 at 10:47:54 am

Latest Report: Dec 9, 2016 at 9:50 am


Visibility: 6 mi

Pressure: 30.48 "Hg

Humidity: 93%

Dew Point: 27 °F

Location of LeondingLocation

Past Weather in Leonding — Graph

°F

Leonding Temperature Yesterday

Maximum temperature yesterday: 28 °F (at 1:20 pm)
Minimum temperature yesterday: 25 °F (at 8:20 am)
Average temperature yesterday: 27 °F

High & Low Weather Summary for the Past Weeks

 TemperatureHumidityPressure
High46 °F (Nov 24, 12:20 pm)100% (Nov 26, 2:50 am)30.63 "Hg (Nov 26, 2:50 am)
Low19 °F (Nov 30, 3:50 am)44% (Nov 28, 12:50 pm)29.98 "Hg (Nov 27, 3:50 am)
Average33 °F86%30.30 "Hg
* Reported Nov 24 9:20 am — Dec 9 9:20 am, Leonding, Weather by CustomWeather, © 2016

Note: Actual official high and low records may vary slightly from our data, if they occured in-between our weather recording intervals... More about our weather records

Advertising

Leonding Weather History for the Previous 24 Hours

Scroll right to see more
 ConditionsComfort  
Time TempWeatherWind HumidityBarometerVisibility
9:20 am
Fri, Dec 9
25 °FCold.7 mph100%30.48 "Hg1 mi
8:50 am23 °FIce fog.6 mph100%30.48 "Hg0 mi
8:20 am23 °FIce fog.3 mph100%30.48 "Hg0 mi
7:50 am23 °FIce fog.1 mph100%30.48 "Hg0 mi
7:20 am25 °FIce fog.1 mph93%30.48 "Hg0 mi
6:50 am25 °FIce fog.3 mph100%30.48 "Hg0 mi
6:20 am25 °FIce fog.3 mph100%30.48 "Hg0 mi
5:50 am27 °FIce fog.2 mph93%30.48 "Hg0 mi
5:20 am27 °FIce fog.1 mph100%30.48 "Hg0 mi
4:50 am27 °FIce fog.2 mph100%30.48 "Hg1 mi
4:20 am27 °FLight freezing rain. Passing clouds.1 mph100%30.45 "Hg1 mi
3:50 am27 °FLight freezing rain. Passing clouds.3 mph93%30.48 "Hg2 mi
3:20 am25 °FPassing clouds.6 mph100%30.48 "Hg5 mi
2:50 am27 °FPassing clouds.2 mph93%30.45 "Hg4 mi
2:20 am27 °FPassing clouds.2 mph100%30.48 "Hg5 mi
1:50 am27 °FPassing clouds.3 mph100%30.48 "Hg5 mi
1:20 am27 °FLight freezing rain. Passing clouds.1 mph100%30.48 "Hg2 mi
12:50 am27 °FLight freezing rain. Passing clouds.3 mph100%30.48 "Hg1 mi
12:20 am27 °FLight freezing rain. Passing clouds.3 mph100%30.51 "Hg1 mi
11:50 pm
Thu, Dec 8
27 °FLight freezing rain. Passing clouds.3 mph100%30.51 "Hg1 mi
10:50 pm27 °FIce fog.3 mph100%30.51 "Hg1 mi
10:20 pm27 °FIce fog.2 mph100%30.51 "Hg1 mi
9:50 pm27 °FLow clouds.5 mph93%30.51 "Hg1 mi
9:20 pm27 °FLight freezing rain. Low clouds.5 mph100%30.51 "Hg1 mi
8:50 pm27 °FPassing clouds.6 mph100%30.51 "Hg1 mi
8:20 pm27 °FIce fog.3 mph100%30.51 "Hg1 mi
7:50 pm27 °FIce fog.2 mph100%30.51 "Hg1 mi
7:20 pm27 °FIce fog.2 mph100%30.51 "Hg1 mi
6:50 pm27 °FIce fog.1 mph100%30.51 "Hg1 mi
6:20 pm27 °FIce fog.3 mph100%30.51 "Hg1 mi
5:50 pm27 °FIce fog.2 mph100%30.51 "Hg1 mi
5:20 pm27 °FIce fog.2 mph100%30.54 "Hg1 mi
4:50 pm28 °FLow clouds.2 mph93%30.51 "Hg1 mi
4:20 pm28 °FLow clouds.1 mph93%30.54 "Hg1 mi
3:50 pm28 °FLight freezing rain. Partly sunny.2 mph93%30.51 "Hg1 mi
3:20 pm28 °FLight freezing rain. Broken clouds.2 mph93%30.54 "Hg1 mi
2:50 pm28 °FLight freezing rain. Broken clouds.3 mph93%30.54 "Hg2 mi
2:20 pm28 °FLight freezing rain. Broken clouds.5 mph93%30.54 "Hg2 mi
1:50 pm27 °FLight freezing rain. Broken clouds.5 mph100%30.57 "Hg2 mi
1:20 pm28 °FLight freezing rain. Broken clouds.3 mph93%30.57 "Hg2 mi
12:50 pm27 °FLight freezing rain. Mostly cloudy.3 mph100%30.57 "Hg2 mi
12:20 pm27 °FLight freezing rain. Mostly cloudy.5 mph100%30.57 "Hg2 mi
11:50 am27 °FLight freezing rain. More clouds than sun.1 mph100%30.60 "Hg1 mi
11:20 am27 °FLight freezing rain. More clouds than sun.1 mph100%30.60 "Hg1 mi
10:50 am27 °FLight freezing rain. More clouds than sun.3 mph100%30.60 "Hg1 mi
10:20 am27 °FLight freezing rain. More clouds than sun.3 mph93%30.60 "Hg1 mi
Weather by CustomWeather, © 2016

See weather overviewHow to use our weather pages